Terug naar catalogus

STARLINK-36412

ActiefCommunicatieVLEO
NORAD 67518·PAYLOAD·🇺🇸 United States

Gelanceerd Jan 18, 2026 vanaf Cape Canaveral Space Force Station

Loading…

Volgende Passages (komende 24 uur)

TLE

VersSource: CelesTrak SupGP

Epoch: Sep 15, 2026, 03:39 UTC

1 67518C 26012AB  26258.15256944  .00042276  00000+0  15309-2 0  2585
2 67518  43.0030 324.1158 0001255 262.6286   5.6055 15.27564484    16

Volg STARLINK-36412 in realtime met AllMySat

Download on the App Store